Location: *
(37.9500°N, 27.3666°E)
Time: 13:05:29
(UTC+00:00)

Cosmos 1447 Rocket - Pass Details

Date: 24 October 2021
Orbit: 954 x 996 km, 82.9° (Epoch: 02 December)

Event Time Altitude Azimuth Distance (km) Brightness Sun altitude
Rises 17:07:13 0° 353° (N) 3,639 7.6 -21.6°
Reaches altitude 10° 17:09:43 10° 353° (N) 2,689 6.9 -22.1°
Maximum altitude 17:15:52 89° 271° (W) 961 4.4 -23.3°
Drops below altitude 10° 17:22:01 10° 176° (S) 2,682 6.7 -24.5°
Sets 17:24:30 0° 176° (S) 3,628 7.4 -25.0°
